LRCK Weather Reports


Display with metric or nautical units.
time (UTC)temp
F
wind
direction
speed
MPH
gust
MPH
rain 1hr
in
rain 24hr
in
rain mn
in
humidity
%
barometer
mb
20260904183317 68 180 10.0 0.0 0.00 0.00 0.00 83 1017.0
20260904181822 68 170 8.0 0.0 0.00 0.00 0.00 83 1017.0
20260904180317 68 170 8.0 0.0 0.00 0.00 0.00 83 1017.0
20260904174817 70 160 8.0 0.0 0.00 0.00 0.00 78 1017.0
20260904173317 70 160 8.0 0.0 0.00 0.00 0.00 78 1017.0
20260904171818 70 140 7.0 0.0 0.00 0.00 0.00 78 1016.0
20260904170317 70 140 7.0 0.0 0.00 0.00 0.00 78 1016.0
20260904164817 73 130 8.0 0.0 0.00 0.00 0.00 74 1016.0
20260904163317 73 130 8.0 0.0 0.00 0.00 0.00 74 1016.0
20260904161817 75 140 8.0 0.0 0.00 0.00 0.00 65 1016.0
20260904160317 75 140 8.0 0.0 0.00 0.00 0.00 65 1016.0
20260904154818 77 140 10.0 0.0 0.00 0.00 0.00 61 1016.0
20260904153319 77 140 10.0 0.0 0.00 0.00 0.00 61 1016.0
20260904151817 79 140 9.0 0.0 0.00 0.00 0.00 54 1016.0
20260904150318 79 140 9.0 0.0 0.00 0.00 0.00 54 1016.0
20260904144818 81 130 9.0 0.0 0.00 0.00 0.00 48 1016.0
20260904143318 81 130 9.0 0.0 0.00 0.00 0.00 48 1016.0
20260904141817 81 130 8.0 0.0 0.00 0.00 0.00 42 1016.0
20260904140327 81 130 8.0 0.0 0.00 0.00 0.00 42 1016.0
20260904134817 81 140 10.0 0.0 0.00 0.00 0.00 45 1016.0
20260904133318 81 140 10.0 0.0 0.00 0.00 0.00 45 1016.0
20260904131817 81 110 6.0 0.0 0.00 0.00 0.00 39 1016.0
20260904130317 81 110 6.0 0.0 0.00 0.00 0.00 39 1016.0
20260904124817 79 70 6.0 0.0 0.00 0.00 0.00 45 1016.0
20260904123317 79 70 6.0 0.0 0.00 0.00 0.00 45 1016.0
20260904121818 79 80 5.0 0.0 0.00 0.00 0.00 48 1016.0
20260904120317 79 80 5.0 0.0 0.00 0.00 0.00 48 1016.0
20260904114818 72 100 5.0 0.0 0.00 0.00 0.00 78 1017.0
20260904113318 72 100 5.0 0.0 0.00 0.00 0.00 78 1017.0
20260904111818 66 40 8.0 0.0 0.00 0.00 0.00 83 1017.0
20260904110433 66 40 8.0 0.0 0.00 0.00 0.00 83 1017.0
20260904104859 68 260 10.0 0.0 0.00 0.00 0.00 88 1017.0
20260904103423 68 260 10.0 0.0 0.00 0.00 0.00 88 1017.0
20260904100323 81 80 10.0 0.0 0.00 0.00 0.00 51 1016.0
20260904093317 84 7.0 0.0 0.00 0.00 0.00 45 1016.0
20260904091817 79 6.0 0.0 0.00 0.00 0.00 51 1017.0
20260904090317 79 6.0 0.0 0.00 0.00 0.00 51 1017.0
20260904084818 81 5.0 0.0 0.00 0.00 0.00 51 1017.0
20260904083317 81 5.0 0.0 0.00 0.00 0.00 51 1017.0
20260904081820 81 80 6.0 0.0 0.00 0.00 0.00 48 1017.0
20260904080318 81 80 6.0 0.0 0.00 0.00 0.00 48 1017.0
20260904074932 79 50 6.0 0.0 0.00 0.00 0.00 58 1017.0
20260904073318 79 50 6.0 0.0 0.00 0.00 0.00 58 1017.0
20260904071817 77 40 6.0 0.0 0.00 0.00 0.00 61 1017.0
20260904070318 77 40 6.0 0.0 0.00 0.00 0.00 61 1017.0
20260904064817 75 20 7.0 0.0 0.00 0.00 0.00 69 1016.0
20260904063317 75 20 7.0 0.0 0.00 0.00 0.00 69 1016.0
20260904061818 75 10 7.0 0.0 0.00 0.00 0.00 74 1016.0
20260904060317 75 10 7.0 0.0 0.00 0.00 0.00 74 1016.0
20260904054818 72 340 5.0 0.0 0.00 0.00 0.00 83 1016.0
20260904053318 72 340 5.0 0.0 0.00 0.00 0.00 83 1016.0
20260904051817 68 320 3.0 0.0 0.00 0.00 0.00 94 1016.0
20260904050317 68 320 3.0 0.0 0.00 0.00 0.00 94 1016.0
20260904044817 66 10 6.0 0.0 0.00 0.00 0.00 94 1016.0
20260904043318 66 10 6.0 0.0 0.00 0.00 0.00 94 1016.0
20260904041817 63 350 6.0 0.0 0.00 0.00 0.00 100 1016.0
20260904040317 63 350 6.0 0.0 0.00 0.00 0.00 100 1016.0
20260904034817 63 10 6.0 0.0 0.00 0.00 0.00 94 1016.0
20260904033317 63 10 6.0 0.0 0.00 0.00 0.00 94 1016.0
20260904031818 63 340 2.0 0.0 0.00 0.00 0.00 94 1015.0
20260904030317 63 340 2.0 0.0 0.00 0.00 0.00 94 1015.0
20260904024818 64 330 2.0 0.0 0.00 0.00 0.00 94 1015.0
20260904023318 64 330 2.0 0.0 0.00 0.00 0.00 94 1015.0
20260904021817 66 320 5.0 0.0 0.00 0.00 0.00 88 1015.0
20260904020318 66 320 5.0 0.0 0.00 0.00 0.00 88 1015.0
20260904014851 66 310 7.0 0.0 0.00 0.00 0.00 94 1015.0
20260904013317 66 310 7.0 0.0 0.00 0.00 0.00 94 1015.0
20260904011818 64 320 6.0 0.0 0.00 0.00 0.00 100 1015.0
20260904010317 64 320 6.0 0.0 0.00 0.00 0.00 100 1015.0
20260904004818 64 330 5.0 0.0 0.00 0.00 0.00 100 1015.0
20260904003318 64 330 5.0 0.0 0.00 0.00 0.00 100 1015.0
20260904001817 66 300 6.0 0.0 0.00 0.00 0.00 94 1016.0
20260904000318 66 300 6.0 0.0 0.00 0.00 0.00 94 1016.0
20260903234817 66 310 5.0 0.0 0.00 0.00 0.00 94 1016.0
20260903233317 66 310 5.0 0.0 0.00 0.00 0.00 94 1016.0
20260903231839 66 290 3.0 0.0 0.00 0.00 0.00 94 1016.0
20260903230315 66 290 3.0 0.0 0.00 0.00 0.00 94 1016.0
20260903224815 66 320 3.0 0.0 0.00 0.00 0.00 94 1016.0
20260903223317 66 320 3.0 0.0 0.00 0.00 0.00 94 1016.0
20260903221817 66 280 5.0 0.0 0.00 0.00 0.00 94 1016.0
20260903220317 66 280 5.0 0.0 0.00 0.00 0.00 94 1016.0
20260903214817 66 270 3.0 0.0 0.00 0.00 0.00 94 1016.0
20260903213326 66 270 3.0 0.0 0.00 0.00 0.00 94 1016.0
20260903211821 68 290 3.0 0.0 0.00 0.00 0.00 94 1016.0
20260903210318 68 290 3.0 0.0 0.00 0.00 0.00 94 1016.0
20260903204929 68 2.0 0.0 0.00 0.00 0.00 94 1016.0
20260903203318 68 2.0 0.0 0.00 0.00 0.00 94 1016.0
20260903201817 68 2.0 0.0 0.00 0.00 0.00 94 1016.0
20260903200318 68 2.0 0.0 0.00 0.00 0.00 94 1016.0
20260903194818 68 250 3.0 0.0 0.00 0.00 0.00 88 1016.0
20260903193319 68 250 3.0 0.0 0.00 0.00 0.00 88 1016.0
20260903191817 70 0 0.0 0.0 0.00 0.00 0.00 88 1016.0
20260903190318 70 0 0.0 0.0 0.00 0.00 0.00 88 1016.0
20260903184817 70 1.0 0.0 0.00 0.00 0.00 88 1016.0